Skip Page Navigation
NASA JPL Caltech
NASA Logo - Jet Propulsion Laboratory + View the NASA Portal
+ Near-Earth Object (NEO) Program
Search JPL
JPL Home Earth Solar System Stars & Galaxies Technology
JPL Solar System Dynamics
BODIES ORBITS EPHEMERIDES TOOLS PHYSICAL DATA DISCOVERY FAQ SITE MAP
JPL Small-Body Database Browser
Search: [ help ]  
96193 Edmonton (1991 TG16)
Classification: Main-belt Asteroid          SPK-ID: 2096193
Ephemeris | Orbit Diagram | Orbital Elements | Physical Parameters | Discovery Circumstances ]

[ hide orbit diagram ]
Orbit Diagram
Note: Make sure you have Java enabled on your browser to see the applet. This applet is provided as a 3D orbit visualization tool. The applet was implemented using 2-body methods, and hence should not be used for determining accurate long-term trajectories (over several years or decades) or planetary encounter circumstances. For accurate long-term ephemerides, please instead use our Horizons system.
Orbit Viewer

Additional Notes: the orbits shown in the applet are color coded. The planets are white lines, and the asteroid/comet is a blue line. The bright white line indicates the portion of the orbit that is above the ecliptic plane, and the darker portion is below the ecliptic plane. Likewise for the asteroid/comet orbit, the light blue indicates the portion above the ecliptic plane, and the dark blue the portion below the ecliptic plane.

Orbit Viewer applet originally written and kindly provided by Osamu Ajiki (AstroArts), and further modified by Ron Baalke (JPL).


Orbital Elements at Epoch 2456400.5 (2013-Apr-18.0) TDB
Reference: MPO251001 (heliocentric ecliptic J2000)
 Element Value Uncertainty (1-sigma)   Units 
e 0.1460086 n/a  
a 2.5720090 n/a AU
q 2.1964736 n/a AU
i 4.71004 n/a deg
node 172.49308 n/a deg
peri 228.07557 n/a deg
M 73.20579 n/a deg
tp 2456094.1272861
(2012-Jun-15.62728610)
n/a JED
period 1506.6318797
4.12
n/a
n/a
d
yr
n 0.23894357 n/a deg/d
Q 2.9475444 n/a AU
  Orbit Determination Parameters
   # obs. used (total)      132  
   first obs. used      1991-??-??  
   last obs. used      2013-01-16  
   # oppositions      11  
   planetary ephem.      DE403  
   condition code      0  
   fit RMS      0.45  
   data source      MPC:mpn  
   producer      MPCLINUX  

Additional Information
 T_jup = 3.409 

Ephemeris | Orbit Diagram | Orbital Elements | Physical Parameters | Discovery Circumstances ]

Physical Parameter Table
Parameter Symbol Value Units Sigma Reference Notes
absolute magnitude H 16.4 mag n/a MPO251001  

96193 Edmonton           Discovered 1991 Oct. 6 by A. Lowe on images taken at Palomar.
Edmonton is the capital city of the province of Alberta. It was founded in 1795 as a trading post and celebrated the centennial of its incorporation as a city in 2004. Edmonton is well-known as a cultural, government and educational center.
NOTE: some special characters may not display properly (any characters within {} are an attempt to place the proper accent above a character)
Reference: 20050919/MPCPages.arcLast Updated: 2005-09-26

Alternate Designations
 1991 TG16 = 2003 RY1 
Ephemeris | Orbit Diagram | Orbital Elements | Physical Parameters | Discovery Circumstances ]
ABOUT SSD CREDITS/AWARDS PRIVACY/COPYRIGHT GLOSSARY LINKS
FirstGov 2013-Jun-20 09:37 UT
(server date/time)  
NASA Home Page
Site Manager:   Donald K. Yeomans
Webmaster  Alan B. Chamberlin